This demonstration page uses our WeatherBlox Daily Observations layout. Learn more.

Left ArrowRight Arrow

36.17497, -115.13722

Hourly Observations for October 1, 2015

Temp ( °F °C ) Dew Point ( °F °C ) Humidity (%) Winds ( mph kmh ) Pressure ( in mb ) Visibility ( mi km ) Precip ( " mm )
12:53 am 00:53 Clear 78 25.6 39 3.9 25 25 NNE 3 6 29.82 1010 10 16 N/A
1:53 am 01:53 Clear 78 25.6 40 4.4 26 26 W 3 6 29.81 1010 10 16 N/A
2:53 am 02:53 Clear 74 23.3 40 4.4 29 29 N 3 6 29.82 1010 10 16 N/A
3:53 am 03:53 Clear 73 22.8 39 3.9 29 29 WNW 6 9 29.81 1010 10 16 N/A
4:53 am 04:53 Clear 73 22.8 38 3.3 28 28 NW 7 11 29.81 1010 10 16 N/A
5:53 am 05:53 Clear 73 22.8 37 2.8 27 27 WNW 6 9 29.83 1010 10 16 N/A
6:53 am 06:53 Sunny 72 22.2 39 3.9 30 30 WNW 9 15 29.85 1011 10 16 N/A
7:53 am 07:53 Sunny 77 25 40 4.4 26 26 N N/A 29.85 1011 10 16 N/A
8:53 am 08:53 Sunny 84 28.9 39 3.9 20 20 ESE 6 9 29.85 1011 10 16 N/A
9:53 am 09:53 Sunny 86 30 41 5 20 20 SE 7 11 29.85 1011 10 16 N/A
10:53 am 10:53 Sunny 91 32.8 41 5 17 17 SE 15 24 29.83 1010 10 16 N/A
11:53 am 11:53 Sunny 94 34.4 41 5 16 16 SSW 17 28 29.81 1009 10 16 N/A
12:53 pm 12:53 Sunny 96 35.6 39 3.9 14 14 SW 21 33 29.80 1009 10 16 N/A
1:53 pm 13:53 Sunny 96 35.6 38 3.3 13 13 WSW 17 28 29.75 1008 10 16 N/A
2:53 pm 14:53 Sunny 97 36.1 30 -1.1 9 9 SW 18 30 29.74 1007 10 16 N/A
3:53 pm 15:53 Sunny 96 35.6 33 0.6 11 11 WSW 18 30 29.73 1007 10 16 N/A
4:53 pm 16:53 Sunny 99 37 43 6 15 15 ESE 13 20 29.59 1002 10 16 N/A
5:53 pm 17:53 Sunny 92 33.3 35 1.7 13 13 WSW 17 28 29.72 1006 10 16 N/A
6:53 pm 18:53 Clear 90 32.2 35 1.7 14 14 SW 21 33 29.72 1006 10 16 N/A
7:53 pm 19:53 Clear 86 30 36 2.2 17 17 W 13 20 29.73 1007 10 16 N/A
8:53 pm 20:53 Clear 84 28.9 38 3.3 19 19 W 18 30 29.75 1007 10 16 N/A
9:53 pm 21:53 Clear 81 27.2 39 3.9 22 22 SSW 6 9 29.78 1008 10 16 N/A
10:53 pm 22:53 Clear 79 26.1 37 2.8 22 22 WSW 10 17 29.78 1009 10 16 N/A
11:53 pm 23:53 Clear 78 25.6 39 3.9 25 25 SW 18 30 29.78 1009 10 16 N/A

Powered by AerisWeather